N0THY Weather Reports


time (UTC)temp
F
wind
direction
speed
knots
gust
knots
rain 1hr
in
rain 24hr
in
rain mn
in
humidity
%
barometer
mb
20260906230218 86 224 4.3 6.1 0.00 0.00 0.00 8 1015.6
20260906224716 86 248 2.6 7.0 0.00 0.00 0.00 8 1015.7
20260906221710 87 248 5.2 7.0 0.00 0.00 0.00 7 1015.7
20260906220207 87 263 4.3 6.1 0.00 0.00 0.00 7 1015.9
20260906214704 87 228 2.6 6.1 0.00 0.00 0.00 7 1015.9
20260906213201 89 273 7.0 7.8 0.00 0.00 0.00 5 1016.1
20260906211658 90 90 0.9 2.6 0.00 0.00 0.00 4 1016.2
20260906210155 92 256 2.6 3.5 0.00 0.00 0.00 3 1016.3
20260906204652 92 176 0.9 6.1 0.00 0.00 0.00 3 1016.5
20260906203149 92 295 0.9 7.0 0.00 0.00 0.00 3 1016.7
20260906201646 91 224 2.6 8.7 0.00 0.00 0.00 4 1017.0
20260906200143 90 114 0.9 7.8 0.00 0.00 0.00 5 1017.2
20260906194640 86 256 2.6 5.2 0.00 0.00 0.00 8 1017.4
20260906193137 86 223 3.5 5.2 0.00 0.00 0.00 8 1017.6
20260906191634 87 188 1.7 4.3 0.00 0.00 0.00 6 1017.8
20260906190131 90 218 3.5 3.5 0.00 0.00 0.00 5 1017.9
20260906184628 87 244 2.6 6.1 0.00 0.00 0.00 6 1018.2
20260906183125 89 273 4.3 4.3 0.00 0.00 0.00 6 1018.4
20260906181623 86 339 0.9 4.3 0.00 0.00 0.00 10 1018.8
20260906180120 85 196 0.9 1.7 0.00 0.00 0.00 14 1019.1
20260906173114 84 218 0.9 1.7 0.00 0.00 0.00 18 1019.6
20260906171611 82 50 0.9 1.7 0.00 0.00 0.00 21 1019.8
20260906170108 81 126 1.7 1.7 0.00 0.00 0.00 22 1020.1
20260906164605 79 220 0.0 0.9 0.00 0.00 0.00 23 1020.2
20260906161559 77 220 0.9 1.7 0.00 0.00 0.00 26 1020.4
20260906160056 75 99 0.0 0.9 0.00 0.00 0.00 29 1020.5
20260906154553 74 0 0.9 1.7 0.00 0.00 0.00 30 1020.7
20260906153050 74 0 0.0 1.7 0.00 0.00 0.00 33 1020.7
20260906151547 71 45 0.0 1.7 0.00 0.00 0.00 38 1021.0
20260906150044 69 0 0.9 0.9 0.00 0.00 0.00 40 1021.1
20260906143038 65 273 0.0 0.9 0.00 0.00 0.00 47 1021.3
20260906141536 63 135 0.0 0.0 0.00 0.00 0.00 50 1021.1
20260906140032 61 45 0.0 0.9 0.00 0.00 0.00 53 1021.2
20260906133027 59 45 0.0 0.0 0.00 0.00 0.00 56 1021.1
20260906131524 57 9 0.9 0.9 0.00 0.00 0.00 59 1020.9
20260906130021 56 45 0.0 0.9 0.00 0.00 0.00 59 1021.0
20260906124518 56 0 0.0 0.9 0.00 0.00 0.00 59 1020.8
20260906123015 56 0 0.0 0.9 0.00 0.00 0.00 59 1020.9
20260906121512 56 0 0.0 0.9 0.00 0.00 0.00 59 1020.8
20260906120009 55 90 0.9 0.9 0.00 0.00 0.00 60 1020.7
20260906114506 55 54 0.9 1.7 0.00 0.00 0.00 62 1020.7
20260906113003 55 54 0.9 0.9 0.00 0.00 0.00 62 1020.8
20260906111500 54 0 0.0 0.0 0.00 0.00 0.00 63 1020.9
20260906105957 53 20 0.0 0.9 0.00 0.00 0.00 64 1020.7
20260906104454 53 0 0.0 0.0 0.00 0.00 0.00 64 1020.8
20260906102951 54 0 0.0 0.9 0.00 0.00 0.00 64 1020.6
20260906101448 54 90 0.0 0.0 0.00 0.00 0.00 63 1020.6
20260906095945 55 0 0.0 0.9 0.00 0.00 0.00 62 1020.7
20260906094443 55 0 0.0 0.0 0.00 0.00 0.00 60 1020.6
20260906092941 55 90 0.0 0.9 0.00 0.00 0.00 59 1020.4
20260906091437 56 45 0.0 0.0 0.00 0.00 0.00 58 1020.3
20260906085934 56 45 0.0 0.0 0.00 0.00 0.00 58 1020.2
20260906084431 56 0 0.0 0.9 0.00 0.00 0.00 58 1020.1
20260906082928 56 24 0.9 0.9 0.00 0.00 0.00 58 1020.0
20260906081425 57 45 0.9 0.9 0.00 0.00 0.00 57 1020.1
20260906075922 57 45 0.0 0.9 0.00 0.00 0.00 55 1020.1
20260906074419 58 0 0.0 0.0 0.00 0.00 0.00 54 1020.2
20260906072916 58 0 0.0 0.9 0.00 0.00 0.00 54 1020.0
20260906071413 58 0 0.0 0.9 0.00 0.00 0.00 53 1020.0
20260906065910 59 0 0.0 0.9 0.00 0.00 0.00 50 1020.0
20260906064407 60 0 0.0 0.0 0.00 0.00 0.00 48 1019.9
20260906062904 60 0 0.0 0.9 0.00 0.00 0.00 48 1019.8
20260906061401 60 90 0.0 0.9 0.00 0.00 0.00 48 1019.7
20260906054355 62 45 0.0 0.0 0.00 0.00 0.00 45 1019.5
20260906052852 63 45 0.9 0.9 0.00 0.00 0.00 44 1019.4
20260906051350 62 45 0.0 0.9 0.00 0.00 0.00 45 1019.4
20260906045847 63 90 0.9 0.9 0.00 0.00 0.00 45 1019.3
20260906044344 63 45 0.0 0.0 0.00 0.00 0.00 42 1019.2
20260906042841 64 0 0.0 0.9 0.00 0.00 0.00 42 1019.1
20260906041338 65 0 0.0 0.9 0.00 0.00 0.00 40 1018.9
20260906035835 66 24 0.9 0.9 0.00 0.00 0.00 39 1018.8
20260906034332 65 8 0.0 0.9 0.00 0.00 0.00 39 1018.6
20260906032829 66 19 0.9 0.9 0.00 0.00 0.00 39 1018.5
20260906031326 66 69 0.9 0.9 0.00 0.00 0.00 39 1018.3
20260906025823 67 0 0.0 0.9 0.00 0.00 0.00 37 1018.0
20260906024320 68 41 0.9 0.9 0.00 0.00 0.00 34 1017.9
20260906022817 71 0 0.0 0.9 0.00 0.00 0.00 30 1017.6
20260906021314 75 57 0.9 0.9 0.00 0.00 0.00 23 1017.2
20260906015811 78 225 0.0 0.0 0.00 0.00 0.00 16 1017.0
20260906014308 80 225 0.0 0.0 0.00 0.00 0.00 14 1016.9
20260906012805 83 270 1.7 3.5 0.00 0.00 0.00 11 1016.9
20260906011302 84 253 0.9 3.5 0.00 0.00 0.00 10 1017.0
20260906005759 86 248 1.7 5.2 0.00 0.00 0.00 8 1016.9
20260906004257 87 243 1.7 4.3 0.00 0.00 0.00 7 1016.9
20260906002754 88 269 2.6 6.1 0.00 0.00 0.00 7 1016.9
20260906001251 88 271 2.6 6.1 0.00 0.00 0.00 6 1016.8
20260905235748 88 261 2.6 6.1 0.00 0.00 0.00 6 1016.8
20260905234245 89 215 3.5 7.8 0.00 0.00 0.00 5 1016.8
20260905232742 89 259 3.5 6.1 0.00 0.00 0.00 5 1016.9